"日付","酸洗鋼版（3×6）（4×8）2.3ミリ","アルミ地金99.7％","","冷延ステンレス鋼板（薄板）SUS-304　2.0（18Cr-8Ni）","快削黄銅棒","","","ニッケル溶解用",""
"","値","高値","安値","値","25mm 値","10mm 値","5mm 値","高値","高値"
"2013/1/4","59","218","213","260","600","610","660","1600","1550"
"2013/1/7","59","222","217","260","640","650","700","1650","1600"
"2013/1/8","59","221","216","260","640","650","700","1650","1600"
"2013/1/9","59","219","214","260","625","635","685","1650","1600"
"2013/1/10","59","224","219","260","625","635","685","1650","1600"
"2013/1/11","59","230","225","260","625","635","685","1700","1650"
"2013/1/15","59","224","219","260","640","650","700","1700","1650"
"2013/1/16","59","223","218","260","640","650","700","1700","1650"
"2013/1/17","59","222","217","260","640","650","700","1700","1650"
"2013/1/18","59","225","220","265","640","650","700","1700","1650"
"2013/1/21","59","226","221","265","640","650","700","1750","1700"
"2013/1/22","59","224","219","265","640","650","700","1750","1700"
"2013/1/23","59","224","219","265","640","650","700","1700","1650"
"2013/1/24","59","223","218","265","640","650","700","1700","1650"
"2013/1/25","59","229","224","265","640","650","700","1700","1650"
"2013/1/28","59","228","223","265","650","660","710","1700","1650"
"2013/1/29","59","226","221","265","650","660","710","1700","1650"
"2013/1/30","59","228","223","265","650","660","710","1750","1700"
"2013/1/31","59","232","227","265","650","660","710","1800","1750"
"2013/2/1","59","232","227","265","660","670","720","1850","1800"
"2013/2/4","59","240","235","265","660","670","720","1850","1800"
"2013/2/5","59","237","232","265","660","670","720","1850","1800"
"2013/2/6","59","241","236","265","680","690","740","1900","1850"
"2013/2/7","59","239","234","265","680","690","740","1900","1850"
"2013/2/8","59","239","234","265","680","690","740","1900","1850"
"2013/2/12","59","240","235","265","680","690","740","1900","1850"
"2013/2/13","59","239","234","265","680","690","740","1900","1850"
"2013/2/14","59","241","236","265","675","685","735","1900","1850"
"2013/2/15","59","241","236","265","675","685","735","1900","1850"
"2013/2/18","59","244","239","265","675","685","735","1900","1850"
"2013/2/19","59","241","236","270","675","685","735","1850","1800"
"2013/2/20","60","240","235","270","670","680","730","1850","1800"
"2013/2/21","60","239","234","270","670","680","730","1800","1750"
"2013/2/22","60","234","229","270","670","680","730","1750","1700"
"2013/2/25","60","236","232","270","655","665","715","1750","1700"
"2013/2/26","60","229","224","270","655","665","715","1750","1700"
"2013/2/27","60","227","222","270","655","665","715","1700","1650"
"2013/2/28","60","227","222","270","655","665","715","1700","1650"
"2013/3/1","60","227","222","270","640","650","700","1700","1650"
"2013/3/4","60","227","222","270","640","650","700","1700","1650"
"2013/3/5","60","226","221","270","640","650","700","1700","1650"
"2013/3/6","60","226","221","270","640","650","700","1700","1650"
"2013/3/7","60","225","220","270","640","650","700","1700","1650"
"2013/3/8","60","230","225","270","650","660","710","1700","1650"
"2013/3/11","60","231","226","270","650","660","710","1750","1700"
"2013/3/12","60","232","227","270","650","660","710","1750","1700"
"2013/3/13","60","233","228","270","660","670","720","1800","1750"
"2013/3/14","60","232","227","270","660","670","720","1800","1750"
"2013/3/15","60","233","228","270","660","670","720","1800","1750"
"2013/3/18","60","227","222","270","660","670","720","1800","1750"
"2013/3/19","60","227","222","270","645","655","705","1750","1700"
"2013/3/21","60","229","224","270","645","655","705","1750","1700"
"2013/3/22","60","226","221","270","645","655","705","1750","1700"
"2013/3/25","60","228","223","270","645","655","705","1750","1700"
"2013/3/26","60","225","220","270","640","650","700","1750","1700"
"2013/3/27","60","224","219","275","640","650","700","1750","1700"
"2013/3/28","60","225","220","275","640","650","700","1750","1700"
"2013/3/29","60","225","220","275","640","650","700","1750","1700"
"2013/4/1","60","225","220","275","640","650","700","1750","1700"
"2013/4/2","60","221","216","275","640","650","700","1750","1700"
"2013/4/3","60","219","214","275","640","650","700","1700","1650"
"2013/4/4","60","217","212","275","615","625","675","1700","1650"
"2013/4/5","60","229","224","275","615","625","675","1700","1650"
"2013/4/8","60","232","227","275","640","650","700","1700","1650"
"2013/4/9","60","234","229","275","650","660","710","1750","1700"
"2013/4/10","60","235","230","275","650","660","710","1750","1700"
"2013/4/11","60","236","231","275","665","675","725","1750","1700"
"2013/4/12","60","235","230","275","665","675","725","1750","1700"
"2013/4/15","60","228","223","275","665","675","725","1750","1700"
"2013/4/16","60","226","221","275","630","640","690","1700","1650"
"2013/4/17","60","235","230","275","630","640","690","1700","1650"
"2013/4/18","60","231","226","275","630","640","690","1700","1650"
"2013/4/19","60","233","228","275","630","640","690","1700","1650"
"2013/4/22","60","234","229","275","630","640","690","1700","1650"
"2013/4/23","60","234","229","275","630","640","690","1700","1650"
"2013/4/24","60","235","230","275","615","625","675","1700","1650"
"2013/4/25","60","236","231","275","615","625","675","1700","1650"
"2013/4/26","60","239","234","275","615","625","675","1700","1650"
"2013/4/30","60","230","225","285","615","625","675","1700","1650"
"2013/5/1","60","226","221","285","615","625","675","1650","1600"
"2013/5/7","60","233","228","285","645","655","705","1650","1600"
"2013/5/8","60","231","226","285","645","655","705","1650","1600"
"2013/5/9","60","234","229","285","645","655","705","1700","1650"
"2013/5/10","60","238","233","285","645","655","705","1700","1650"
"2013/5/13","60","239","234","285","660","670","720","1700","1650"
"2013/5/14","60","238","233","285","660","670","720","1700","1650"
"2013/5/15","60","237","232","285","660","670","720","1700","1650"
"2013/5/16","60","235","230","285","650","660","710","1700","1650"
"2013/5/17","60","237","232","285","650","660","710","1700","1650"
"2013/5/20","60","238","233","285","650","660","710","1700","1650"
"2013/5/21","60","238","233","285","660","670","720","1700","1650"
"2013/5/22","60","237","232","285","660","670","720","1700","1650"
"2013/5/23","60","241","236","285","660","670","720","1700","1650"
"2013/5/24","60","236","231","285","660","670","720","1700","1650"
"2013/5/27","60","236","231","285","660","670","720","1650","1600"
"2013/5/28","60","233","228","285","660","670","720","1650","1600"
"2013/5/29","60","236","231","285","660","670","720","1650","1600"
"2013/5/30","60","234","229","285","660","670","720","1650","1600"
"2013/5/31","60","239","234","285","660","670","720","1650","1600"
"2013/6/3","60","240","235","285","655","665","715","1650","1600"
"2013/6/4","60","239","234","285","655","665","715","1650","1600"
"2013/6/5","60","243","238","285","655","665","715","1650","1600"
"2013/6/6","60","242","237","285","655","665","715","1650","1600"
"2013/6/7","60","236","231","285","640","650","700","1600","1550"
"2013/6/10","60","235","230","285","640","650","700","1600","1550"
"2013/6/11","60","235","230","285","640","650","700","1600","1550"
"2013/6/12","60","225","220","285","610","620","670","1550","1500"
"2013/6/13","60","221","216","285","610","620","670","1550","1500"
"2013/6/14","60","221","216","285","610","620","670","1500","1450"
"2013/6/17","60","218","213","285","610","620","670","1500","1450"
"2013/6/18","60","217","212","285","605","615","665","1500","1450"
"2013/6/19","60","218","213","285","605","615","665","1500","1450"
"2013/6/20","60","218","213","285","605","615","665","1500","1450"
"2013/6/21","60","217","212","285","595","605","655","1500","1450"
"2013/6/24","60","219","214","285","595","605","655","1500","1450"
"2013/6/25","60","217","212","285","595","605","655","1500","1450"
"2013/6/26","60","217","212","285","600","610","660","1500","1450"
"2013/6/27","60","216","211","285","600","610","660","1500","1450"
"2013/6/28","60","218","213","285","600","610","660","1550","1500"
"2013/7/1","60","221","216","285","610","620","670","1550","1500"
"2013/7/2","60","226","221","285","610","620","670","1550","1500"
"2013/7/3","60","229","224","285","610","620","670","1550","1500"
"2013/7/4","60","225","220","285","630","640","690","1550","1500"
"2013/7/5","60","226","221","285","630","640","690","1550","1500"
"2013/7/8","60","225","220","285","630","640","690","1550","1500"
"2013/7/9","60","226","221","285","630","640","690","1550","1500"
"2013/7/10","60","226","221","285","625","635","685","1500","1450"
"2013/7/11","60","227","222","285","625","635","685","1500","1450"
"2013/7/12","60","225","220","285","625","635","685","1500","1450"
"2013/7/16","60","225","220","285","625","635","685","1500","1450"
"2013/7/17","60","223","218","285","625","635","685","1500","1450"
"2013/7/18","60","224","219","285","625","635","685","1500","1450"
"2013/7/19","60","227","222","285","625","635","685","1550","1500"
"2013/7/22","60","228","223","285","625","635","685","1550","1500"
"2013/7/23","60","227","222","285","630","640","690","1550","1500"
"2013/7/24","60","227","222","285","630","640","690","1550","1500"
"2013/7/25","60","229","224","285","630","640","690","1550","1500"
"2013/7/26","60","225","220","285","630","640","690","1550","1500"
"2013/7/29","62","219","214","285","610","620","670","1550","1500"
"2013/7/30","62","219","214","285","610","620","670","1500","1450"
"2013/7/31","62","217","212","285","610","620","670","1500","1450"
"2013/8/1","62","219","214","285","610","620","670","1500","1450"
"2013/8/2","62","224","219","285","610","620","670","1500","1450"
"2013/8/5","62","223","218","285","610","620","670","1500","1450"
"2013/8/6","62","221","216","285","620","630","680","1500","1450"
"2013/8/7","62","217","212","285","620","630","680","1500","1450"
"2013/8/8","62","217","212","285","620","630","680","1450","1400"
"2013/8/9","63","221","216","285","620","630","680","1500","1450"
"2013/8/12","63","222","217","285","630","640","690","1550","1500"
"2013/8/13","63","227","222","285","630","640","690","1600","1550"
"2013/8/14","63","228","223","285","630","640","690","1600","1550"
"2013/8/15","63","228","223","285","630","640","690","1600","1550"
"2013/8/16","63","229","224","285","630","640","690","1600","1550"
"2013/8/19","63","233","228","285","645","655","705","1600","1550"
"2013/8/20","63","230","225","285","645","655","705","1600","1550"
"2013/8/21","63","229","224","285","645","655","705","1600","1550"
"2013/8/22","63","228","223","285","645","655","705","1600","1550"
"2013/8/23","63","230","225","285","645","655","705","1600","1550"
"2013/8/26","63","230","225","285","645","655","705","1600","1550"
"2013/8/27","63","229","224","285","645","655","705","1600","1550"
"2013/8/28","63","226","221","285","645","655","705","1550","1500"
"2013/8/29","63","225","220","285","645","655","705","1550","1500"
"2013/8/30","63","223","218","285","645","655","705","1550","1500"
"2013/9/2","63","223","218","285","630","640","690","1550","1500"
"2013/9/3","63","227","222","285","630","640","690","1550","1500"
"2013/9/4","63","226","221","285","630","640","690","1550","1500"
"2013/9/5","63","223","218","285","635","645","695","1550","1500"
"2013/9/6","63","225","220","285","635","645","695","1550","1500"
"2013/9/9","63","226","221","285","635","645","695","1550","1500"
"2013/9/10","63","224","219","285","635","645","695","1550","1500"
"2013/9/11","63","225","220","285","640","650","700","1550","1500"
"2013/9/12","63","224","219","285","640","650","700","1550","1500"
"2013/9/13","63","224","219","285","640","650","700","1550","1500"
"2013/9/17","63","220","215","285","630","640","690","1550","1500"
"2013/9/18","63","220","215","285","630","640","690","1550","1500"
"2013/9/19","63","221","216","285","630","640","690","1550","1500"
"2013/9/20","63","225","220","285","650","660","710","1550","1500"
"2013/9/24","63","222","217","285","650","660","710","1550","1500"
"2013/9/25","63","221","216","285","650","660","710","1550","1500"
"2013/9/26","63","220","215","285","635","645","695","1550","1500"
"2013/9/27","63","223","218","285","635","645","695","1550","1500"
"2013/9/30","63","222","217","285","635","645","695","1550","1500"
"2013/10/1","63","225","220","285","640","650","700","1550","1500"
"2013/10/2","63","222","217","285","640","650","700","1550","1500"
"2013/10/3","63","222","217","285","640","650","700","1500","1450"
"2013/10/4","63","221","216","285","625","635","685","1500","1450"
"2013/10/7","63","222","217","285","625","635","685","1500","1450"
"2013/10/8","65","222","217","285","625","635","685","1500","1450"
"2013/10/9","65","223","218","285","625","635","685","1500","1450"
"2013/10/10","65","224","219","285","625","635","685","1500","1450"
"2013/10/11","65","228","223","285","625","635","685","1500","1450"
"2013/10/15","65","228","223","285","640","650","700","1500","1450"
"2013/10/16","65","225","220","285","640","650","700","1500","1450"
"2013/10/17","65","227","222","285","640","650","700","1500","1450"
"2013/10/18","65","225","220","285","635","645","695","1500","1450"
"2013/10/21","65","224","219","285","635","645","695","1550","1500"
"2013/10/22","65","225","220","285","635","645","695","1550","1500"
"2013/10/23","65","227","222","285","645","655","705","1600","1550"
"2013/10/24","65","222","217","285","645","655","705","1600","1550"
"2013/10/25","65","224","219","285","645","655","705","1600","1550"
"2013/10/28","65","226","221","285","630","640","690","1600","1550"
"2013/10/29","65","227","222","285","630","640","690","1600","1550"
"2013/10/30","65","228","223","285","630","640","690","1600","1550"
"2013/10/31","65","229","224","285","630","640","690","1600","1550"
"2013/11/1","65","229","224","285","630","640","690","1600","1550"
"2013/11/5","65","228","223","285","635","645","695","1600","1550"
"2013/11/6","65","224","219","285","635","645","695","1600","1550"
"2013/11/7","65","223","218","285","635","645","695","1600","1550"
"2013/11/8","65","224","219","285","635","645","695","1600","1550"
"2013/11/11","65","222","217","285","635","645","695","1550","1500"
"2013/11/12","65","225","220","285","635","645","695","1550","1500"
"2013/11/13","65","223","218","285","635","645","695","1550","1500"
"2013/11/14","65","223","218","285","635","645","695","1550","1500"
"2013/11/15","65","222","217","285","630","640","690","1550","1500"
"2013/11/18","65","223","218","285","630","640","690","1550","1500"
"2013/11/19","65","224","219","285","630","640","690","1550","1500"
"2013/11/20","65","222","217","285","630","640","690","1550","1500"
"2013/11/21","65","223","218","285","630","640","690","1550","1500"
"2013/11/22","65","223","218","285","630","640","690","1550","1500"
"2013/11/25","66","225","220","285","645","655","705","1550","1500"
"2013/11/26","66","226","221","285","645","655","705","1550","1500"
"2013/11/27","66","224","219","285","645","655","705","1550","1500"
"2013/11/28","66","224","219","285","645","655","705","1550","1500"
"2013/11/29","66","224","219","285","645","655","705","1550","1500"
"2013/12/2","66","225","220","285","645","655","705","1550","1500"
"2013/12/3","66","225","220","285","645","655","705","1550","1500"
"2013/12/4","66","224","219","285","645","655","705","1550","1500"
"2013/12/5","66","226","221","285","650","660","710","1550","1500"
"2013/12/6","68","224","219","285","650","660","710","1550","1500"
"2013/12/9","68","228","223","290","650","660","710","1550","1500"
"2013/12/10","68","230","225","290","660","670","720","1600","1550"
"2013/12/11","68","231","226","290","660","670","720","1600","1550"
"2013/12/12","68","231","226","290","660","670","720","1600","1550"
"2013/12/13","68","231","226","290","670","680","730","1600","1550"
"2013/12/16","68","231","226","290","670","680","730","1600","1550"
"2013/12/17","68","230","225","290","670","680","730","1600","1550"
"2013/12/18","68","229","224","290","670","680","730","1600","1550"
"2013/12/19","68","232","227","290","675","685","735","1600","1550"
"2013/12/20","68","231","226","290","675","685","735","1600","1550"
"2013/12/24","68","229","224","290","680","690","740","1650","1600"
"2013/12/25","68","229","224","290","680","690","740","1650","1600"
"2013/12/26","68","229","224","290","680","690","740","1650","1600"
